Saint Johns, AZ

12:41 PM MST on December 10, 2016 (GMT -0700)
Saint Johns Industrial

Weather History for KSJN - November, 2012

Change the Weather History Date:

Saturday, November 24, 2012

  Actual Average (KLSB) Record (KLSB)
Temperature  
Mean Temperature 42 °F -  
Max Temperature 64 °F 63 °F 68 °F (2015)
Min Temperature 19 °F 27 °F 19 °F (2014)
Degree Days  
Heating Degree Days 24    
Moisture  
Dew Point 17 °F    
Average Humidity 38    
Maximum Humidity 65    
Minimum Humidity 15    
Precipitation  
Precipitation 0.00 in - - ()
Sea Level Pressure  
Sea Level Pressure 30.20 in    
Wind  
Wind Speed 2 mph (SW)    
Max Wind Speed 8 mph    
Max Gust Speed -    
Visibility 10 miles    
Events      
Averages and records for this station are not official NWS values.
T = Trace of Precipitation, MM = Missing Value Source: NWS Daily Summary

Daily Weather History Graph

Daily Weather History Graph

Search for Another Location

Airport or City:

Trip Planner

Search our weather history database for the weather conditions in past years. The results will help you decide how hot, cold, wet, or windy it might be!

Date:

Astronomy

Nov. 24, 2012 Rise Set
Actual Time 7:00 AM MST 5:08 PM MST
Civil Twilight 6:32 AM MST 5:35 PM MST
Nautical Twilight 6:02 AM MST 6:06 PM MST
Astronomical Twilight 5:31 AM MST 6:36 PM MST
Moon 2:48 PM MST (11/24) 3:27 AM MST (11/24)
Length of Visible Light 11h 02m
Length of Day
10h 08m
Waxing Gibbous, 87% of the Moon is Illuminated
Nov 24
Waxing Gibbous
Nov 28
Full
Dec 6
Last Quarter
Dec 13
New
Dec 19
First Quarter

Hourly Weather History & Observations

Time (MST) Temp. Windchill Dew Point Humidity Pressure Visibility Wind Dir Wind Speed Gust Speed Precip Events Conditions
12:54 AM 33.1 °F - 14.0 °F 46% 30.28 in 10.0 mi Calm Calm - N/A   Clear
1:54 AM 30.9 °F 26.2 °F 14.0 °F 50% 30.28 in 10.0 mi South 4.6 mph - N/A   Clear
2:54 AM 26.1 °F - 12.9 °F 58% 30.29 in 10.0 mi Calm Calm - N/A   Clear
3:54 AM 30.0 °F 25.2 °F 14.0 °F 51% 30.27 in 10.0 mi South 4.6 mph - N/A   Clear
4:54 AM 32.0 °F 28.7 °F 15.1 °F 50% 30.27 in 10.0 mi SE 3.5 mph - N/A   Clear
5:54 AM 23.0 °F - 12.0 °F 63% 30.36 in 10.0 mi Calm Calm - N/A   Clear
6:54 AM 24.1 °F 19.7 °F 12.0 °F 60% 30.36 in 10.0 mi West 3.5 mph - N/A   Clear
7:54 AM 30.0 °F - 14.0 °F 51% 30.35 in 10.0 mi Calm Calm - N/A   Clear
8:54 AM 37.0 °F - 16.0 °F 42% 30.32 in 10.0 mi Calm Calm - N/A   Clear
9:54 AM 44.1 °F - 18.0 °F 35% 30.30 in 10.0 mi Calm Calm - N/A   Clear
10:54 AM 50.0 °F - 19.0 °F 29% 30.25 in 10.0 mi Calm Calm - N/A   Clear
11:54 AM 57.0 °F - 19.0 °F 23% 30.19 in 10.0 mi Calm Calm - N/A   Clear
12:54 PM 62.1 °F - 19.9 °F 20% 30.14 in 10.0 mi NNW 3.5 mph - N/A   Clear
1:54 PM 64.0 °F - 21.0 °F 19% 30.11 in 10.0 mi NNE 6.9 mph - N/A   Clear
2:54 PM 64.0 °F - 19.0 °F 18% 30.11 in 10.0 mi WNW 5.8 mph - N/A   Clear
3:54 PM 64.0 °F - 17.1 °F 16% 30.08 in 10.0 mi NNW 5.8 mph - N/A   Clear
4:54 PM 59.0 °F - 16.0 °F 19% 30.08 in 10.0 mi NW 5.8 mph - N/A   Clear
5:54 PM 46.9 °F - 16.0 °F 29% 30.16 in 10.0 mi West 4.6 mph - N/A   Clear
6:54 PM 43.0 °F - 15.1 °F 32% 30.17 in 10.0 mi Calm Calm - N/A   Clear
7:54 PM 41.0 °F 37.1 °F 15.1 °F 35% 30.15 in 10.0 mi South 5.8 mph - N/A   Clear
8:54 PM 42.1 °F 37.1 °F 16.0 °F 35% 30.12 in 10.0 mi South 8.1 mph - N/A   Clear
9:54 PM 41.0 °F 35.8 °F 17.1 °F 38% 30.10 in 10.0 mi South 8.1 mph - N/A   Clear
10:54 PM 41.0 °F 38.0 °F 17.1 °F 38% 30.07 in 10.0 mi SSE 4.6 mph - N/A   Clear
11:54 PM 35.1 °F 32.2 °F 16.0 °F 46% 30.07 in 10.0 mi South 3.5 mph - N/A   Clear